TimeEDT,TemperatureF,Dew PointF,Humidity,Sea Level PressureIn,VisibilityMPH,Wind Direction,Wind SpeedMPH,Gust SpeedMPH,PrecipitationIn,Events,Conditions,WindDirDegrees,DateUTC
12:06 AM,69.8,69.8,100,29.92,0.5,ENE,4.6,-,N/A,Fog,Fog,70,2013-08-28 04:06:00
12:31 AM,69.8,69.8,100,29.91,0.2,Calm,Calm,-,N/A,Fog,Fog,0,2013-08-28 04:31:00
12:50 AM,69.8,69.8,100,29.91,0.2,East,3.5,-,N/A,Fog,Fog,80,2013-08-28 04:50:00
12:52 AM,70.0,69.1,97,29.90,0.2,East,3.5,-,N/A,Fog,Fog,80,2013-08-28 04:52:00
1:01 AM,69.8,69.8,100,29.91,0.8,Calm,Calm,-,N/A,,Mist,0,2013-08-28 05:01:00
1:18 AM,69.8,68.0,94,29.90,1.2,Calm,Calm,-,N/A,,Overcast,0,2013-08-28 05:18:00
1:52 AM,69.1,68.0,96,29.88,0.8,Calm,Calm,-,N/A,,Overcast,0,2013-08-28 05:52:00
2:24 AM,68.0,68.0,100,29.88,0.2,Calm,Calm,-,N/A,Fog,Fog,0,2013-08-28 06:24:00
2:36 AM,69.8,68.0,94,29.88,0.5,Calm,Calm,-,N/A,Fog,Fog,0,2013-08-28 06:36:00
2:48 AM,69.8,68.0,94,29.88,0.2,Calm,Calm,-,N/A,Fog,Fog,0,2013-08-28 06:48:00
2:52 AM,69.1,68.0,96,29.87,0.2,Calm,Calm,-,N/A,Fog,Fog,0,2013-08-28 06:52:00
3:16 AM,68.0,68.0,100,29.88,0.2,Calm,Calm,-,N/A,Fog,Fog,0,2013-08-28 07:16:00
3:52 AM,68.0,68.0,100,29.87,0.2,Calm,Calm,-,N/A,Fog,Fog,0,2013-08-28 07:52:00
4:52 AM,68.0,66.9,96,29.87,0.2,Calm,Calm,-,N/A,Fog,Fog,0,2013-08-28 08:52:00
5:49 AM,68.0,66.2,94,29.89,0.2,Calm,Calm,-,0.01,Fog,Fog,0,2013-08-28 09:49:00
5:52 AM,68.0,66.9,96,29.88,0.2,Calm,Calm,-,0.01,Fog,Fog,0,2013-08-28 09:52:00
5:59 AM,68.0,66.2,94,29.89,0.2,Calm,Calm,-,N/A,Fog,Fog,0,2013-08-28 09:59:00
6:22 AM,68.0,66.2,94,29.90,0.2,Calm,Calm,-,N/A,Fog,Fog,0,2013-08-28 10:22:00
6:52 AM,68.0,66.9,96,29.90,0.2,North,3.5,-,N/A,Fog,Fog,360,2013-08-28 10:52:00
7:52 AM,68.0,66.9,96,29.90,0.2,Calm,Calm,-,N/A,Fog,Fog,0,2013-08-28 11:52:00
8:52 AM,69.1,68.0,96,29.91,0.5,Calm,Calm,-,N/A,Fog,Fog,0,2013-08-28 12:52:00
9:08 AM,69.8,68.0,94,29.91,1.5,Calm,Calm,-,N/A,,Overcast,0,2013-08-28 13:08:00
9:17 AM,69.8,68.0,94,29.91,2.5,Calm,Calm,-,N/A,,Overcast,0,2013-08-28 13:17:00
9:52 AM,69.1,68.0,96,29.91,4.0,Calm,Calm,-,N/A,,Overcast,0,2013-08-28 13:52:00
10:52 AM,75.9,70.0,82,29.90,8.0,Calm,Calm,-,N/A,,Scattered Clouds,0,2013-08-28 14:52:00
11:52 AM,81.0,69.1,67,29.88,10.0,SE,3.5,-,N/A,,Partly Cloudy,130,2013-08-28 15:52:00
12:52 PM,82.0,69.1,65,29.87,10.0,Variable,5.8,-,N/A,,Clear,0,2013-08-28 16:52:00
1:52 PM,82.9,68.0,60,29.87,10.0,Variable,4.6,-,N/A,,Overcast,0,2013-08-28 17:52:00
1:59 PM,82.4,68.0,62,29.87,10.0,East,4.6,-,N/A,Thunderstorm,Overcast,100,2013-08-28 17:59:00
2:29 PM,80.6,69.8,70,29.87,10.0,Variable,3.5,-,N/A,,Overcast,0,2013-08-28 18:29:00
2:50 PM,77.0,69.8,78,29.86,10.0,North,9.2,-,N/A,Thunderstorm,Thunderstorm,350,2013-08-28 18:50:00
2:52 PM,77.0,70.0,79,29.86,10.0,NNW,9.2,-,N/A,Thunderstorm,Thunderstorm,340,2013-08-28 18:52:00
3:52 PM,75.0,69.1,82,29.87,9.0,South,11.5,16.1,0.00,Thunderstorm,Overcast,190,2013-08-28 19:52:00
4:02 PM,71.6,66.2,83,29.88,1.8,South,12.7,21.9,0.07,Rain-Thunderstorm,Heavy Thunderstorms and Rain,190,2013-08-28 20:02:00
4:08 PM,69.8,66.2,88,29.88,2.0,SW,9.2,-,0.11,Rain-Thunderstorm,Heavy Thunderstorms and Rain,220,2013-08-28 20:08:00
4:12 PM,69.8,66.2,88,29.88,3.0,SSW,12.7,16.1,0.11,Rain,Light Rain,200,2013-08-28 20:12:00
4:19 PM,71.6,66.2,83,29.88,4.0,SSW,9.2,-,0.13,Rain-Thunderstorm,Thunderstorms and Rain,210,2013-08-28 20:19:00
4:38 PM,71.6,68.0,88,29.89,9.0,Calm,Calm,-,0.14,Rain,Light Rain,0,2013-08-28 20:38:00
4:52 PM,72.0,69.1,91,29.88,8.0,SSE,3.5,-,0.14,,Overcast,160,2013-08-28 20:52:00
5:52 PM,73.9,70.0,87,29.88,8.0,SSE,3.5,-,N/A,,Overcast,160,2013-08-28 21:52:00
6:52 PM,73.0,69.1,87,29.89,8.0,South,4.6,-,N/A,,Clear,180,2013-08-28 22:52:00
7:52 PM,71.1,69.1,93,29.90,7.0,Calm,Calm,-,N/A,,Clear,0,2013-08-28 23:52:00
8:45 PM,71.6,69.8,94,29.92,6.0,Calm,Calm,-,N/A,,Scattered Clouds,0,2013-08-29 00:45:00
8:52 PM,71.1,69.1,93,29.92,6.0,Calm,Calm,-,N/A,,Partly Cloudy,0,2013-08-29 00:52:00
9:06 PM,71.6,68.0,88,29.93,7.0,Calm,Calm,-,N/A,,Mostly Cloudy,0,2013-08-29 01:06:00
9:16 PM,69.8,68.0,94,29.93,7.0,Calm,Calm,-,N/A,,Mostly Cloudy,0,2013-08-29 01:16:00
9:41 PM,69.8,68.0,94,29.94,7.0,Calm,Calm,-,N/A,,Scattered Clouds,0,2013-08-29 01:41:00
9:52 PM,70.0,68.0,93,29.93,7.0,Calm,Calm,-,N/A,,Partly Cloudy,0,2013-08-29 01:52:00
10:43 PM,69.8,68.0,94,29.93,5.0,Calm,Calm,-,N/A,,Partly Cloudy,0,2013-08-29 02:43:00
10:52 PM,69.1,68.0,96,29.92,5.0,Calm,Calm,-,N/A,,Partly Cloudy,0,2013-08-29 02:52:00
11:06 PM,69.8,66.2,88,29.93,6.0,Calm,Calm,-,N/A,,Mostly Cloudy,0,2013-08-29 03:06:00
11:22 PM,69.8,66.2,88,29.93,6.0,Calm,Calm,-,N/A,,Scattered Clouds,0,2013-08-29 03:22:00
11:52 PM,69.1,66.9,93,29.94,7.0,ENE,3.5,-,N/A,,Scattered Clouds,60,2013-08-29 03:52:00